| time (UTC) | temp F | wind direction | speed MPH | gust MPH | rain 1hr in | rain 24hr in | rain mn in | humidity % | barometer mb |
| 20260507134640 | 54 | 315 | 10.0 | 14.0 | 0.00 | 0.00 | 0.00 | 44 | 1013.5 |
| 20260507134216 | 54 | 321 | 9.0 | 14.0 | 0.00 | 0.00 | 0.00 | 45 | 1013.5 |
| 20260507133718 | 53 | 327 | 11.0 | 13.0 | 0.00 | 0.00 | 0.00 | 47 | 1013.5 |
| 20260507133218 | 53 | 288 | 5.0 | 12.0 | 0.00 | 0.00 | 0.00 | 49 | 1013.5 |
| 20260507132718 | 52 | 309 | 8.0 | 12.0 | 0.00 | 0.00 | 0.00 | 50 | 1013.5 |
| 20260507132236 | 51 | 291 | 7.0 | 12.0 | 0.00 | 0.00 | 0.00 | 52 | 1013.2 |
| 20260507131815 | 50 | 299 | 10.0 | 12.0 | 0.00 | 0.00 | 0.00 | 54 | 1013.2 |
| 20260507131337 | 48 | 292 | 9.0 | 11.0 | 0.00 | 0.00 | 0.00 | 56 | 1013.5 |
| 20260507130916 | 47 | 282 | 7.0 | 10.0 | 0.00 | 0.00 | 0.00 | 61 | 1013.2 |
| 20260507130440 | 45 | 229 | 2.0 | 4.0 | 0.00 | 0.00 | 0.00 | 65 | 1013.2 |
| 20260507125944 | 44 | 227 | 3.0 | 3.0 | 0.00 | 0.00 | 0.00 | 69 | 1013.2 |
| 20260507125516 | 43 | 221 | 0.0 | 2.0 | 0.00 | 0.00 | 0.00 | 71 | 1013.2 |
| 20260507125116 | 42 | 220 | 1.0 | 2.0 | 0.00 | 0.00 | 0.00 | 73 | 1012.9 |
| 20260507124640 | 41 | 229 | 0.0 | 3.0 | 0.00 | 0.00 | 0.00 | 74 | 1012.9 |
| 20260507124140 | 40 | 229 | 0.0 | 3.0 | 0.00 | 0.00 | 0.00 | 75 | 1012.9 |
| 20260507123716 | 39 | 229 | 2.0 | 3.0 | 0.00 | 0.00 | 0.00 | 77 | 1012.9 |
| 20260507123242 | 38 | 224 | 0.0 | 4.0 | 0.00 | 0.00 | 0.00 | 77 | 1012.9 |
| 20260507122813 | 38 | 224 | 2.0 | 4.0 | 0.00 | 0.00 | 0.00 | 77 | 1012.9 |
| 20260507122341 | 37 | 224 | 1.0 | 4.0 | 0.00 | 0.00 | 0.00 | 77 | 1012.9 |
| 20260507121915 | 37 | 224 | 3.0 | 4.0 | 0.00 | 0.00 | 0.00 | 77 | 1012.5 |
| 20260507121442 | 37 | 225 | 3.0 | 4.0 | 0.00 | 0.00 | 0.00 | 77 | 1012.5 |
| 20260507121013 | 37 | 225 | 3.0 | 3.0 | 0.00 | 0.00 | 0.00 | 77 | 1012.5 |
| 20260507120544 | 36 | 225 | 2.0 | 3.0 | 0.00 | 0.00 | 0.00 | 77 | 1012.5 |
| 20260507120114 | 36 | 225 | 1.0 | 3.0 | 0.00 | 0.00 | 0.00 | 76 | 1012.5 |
| 20260507115637 | 36 | 225 | 2.0 | 3.0 | 0.00 | 0.00 | 0.00 | 75 | 1012.5 |
| 20260507115212 | 37 | 225 | 2.0 | 2.0 | 0.00 | 0.00 | 0.00 | 72 | 1012.5 |
| 20260507114742 | 38 | 229 | 2.0 | 2.0 | 0.00 | 0.00 | 0.00 | 70 | 1012.5 |
| 20260507114239 | 39 | 229 | 0.0 | 3.0 | 0.00 | 0.00 | 0.00 | 70 | 1012.5 |
| 20260507113839 | 39 | 229 | 1.0 | 3.0 | 0.00 | 0.00 | 0.00 | 69 | 1012.5 |
| 20260507113413 | 40 | 229 | 1.0 | 3.0 | 0.00 | 0.00 | 0.00 | 67 | 1012.5 |
| 20260507112938 | 41 | 225 | 2.0 | 7.0 | 0.00 | 0.00 | 0.00 | 66 | 1012.5 |
| 20260507112512 | 41 | 229 | 2.0 | 9.0 | 0.00 | 0.00 | 0.00 | 66 | 1012.5 |
| 20260507112039 | 41 | 244 | 5.0 | 9.0 | 0.00 | 0.00 | 0.00 | 67 | 1012.2 |
| 20260507111614 | 41 | 267 | 7.0 | 10.0 | 0.00 | 0.00 | 0.00 | 69 | 1012.2 |
| 20260507111113 | 40 | 266 | 4.0 | 10.0 | 0.00 | 0.00 | 0.00 | 71 | 1012.2 |
| 20260507110641 | 38 | 238 | 5.0 | 9.0 | 0.00 | 0.00 | 0.00 | 72 | 1012.2 |
| 20260507110248 | 38 | 242 | 3.0 | 6.0 | 0.00 | 0.00 | 0.00 | 72 | 1012.2 |
| 20260507105813 | 38 | 232 | 4.0 | 8.0 | 0.00 | 0.00 | 0.00 | 72 | 1012.2 |
| 20260507105338 | 38 | 238 | 4.0 | 8.0 | 0.00 | 0.00 | 0.00 | 72 | 1012.2 |
| 20260507104913 | 37 | 236 | 4.0 | 8.0 | 0.00 | 0.00 | 0.00 | 73 | 1012.2 |
| 20260507104414 | 37 | 237 | 3.0 | 7.0 | 0.00 | 0.00 | 0.00 | 73 | 1012.2 |
| 20260507104014 | 37 | 244 | 5.0 | 7.0 | 0.00 | 0.00 | 0.00 | 72 | 1012.2 |
| 20260507103541 | 37 | 261 | 7.0 | 8.0 | 0.00 | 0.00 | 0.00 | 72 | 1012.2 |
| 20260507103114 | 37 | 263 | 4.0 | 8.0 | 0.00 | 0.00 | 0.00 | 72 | 1012.2 |
| 20260507102642 | 37 | 256 | 4.0 | 8.0 | 0.00 | 0.00 | 0.00 | 71 | 1012.5 |
| 20260507102212 | 37 | 264 | 4.0 | 9.0 | 0.00 | 0.00 | 0.00 | 71 | 1012.5 |
| 20260507101738 | 37 | 253 | 4.0 | 9.0 | 0.00 | 0.00 | 0.00 | 71 | 1012.5 |
| 20260507101311 | 37 | 260 | 3.0 | 8.0 | 0.00 | 0.00 | 0.00 | 71 | 1012.5 |
| 20260507100841 | 37 | 267 | 6.0 | 10.0 | 0.00 | 0.00 | 0.00 | 72 | 1012.5 |
| 20260507100415 | 37 | 277 | 9.0 | 10.0 | 0.00 | 0.00 | 0.00 | 72 | 1012.5 |
| 20260507095942 | 36 | 243 | 8.0 | 9.0 | 0.00 | 0.00 | 0.00 | 73 | 1012.5 |
| 20260507095412 | 36 | 248 | 4.0 | 9.0 | 0.00 | 0.00 | 0.00 | 73 | 1012.5 |
| 20260507094942 | 36 | 246 | 7.0 | 9.0 | 0.00 | 0.00 | 0.00 | 74 | 1012.9 |
| 20260507094437 | 36 | 259 | 4.0 | 9.0 | 0.00 | 0.00 | 0.00 | 74 | 1012.9 |
| 20260507094014 | 36 | 239 | 5.0 | 8.0 | 0.00 | 0.00 | 0.00 | 75 | 1012.5 |
| 20260507093512 | 36 | 253 | 7.0 | 8.0 | 0.00 | 0.00 | 0.00 | 75 | 1012.5 |
| 20260507093013 | 35 | 243 | 8.0 | 8.0 | 0.00 | 0.00 | 0.00 | 74 | 1012.9 |
| 20260507092539 | 36 | 246 | 4.0 | 8.0 | 0.00 | 0.00 | 0.00 | 74 | 1012.9 |
| 20260507092114 | 36 | 278 | 7.0 | 8.0 | 0.00 | 0.00 | 0.00 | 74 | 1012.9 |
| 20260507091637 | 36 | 254 | 3.0 | 7.0 | 0.00 | 0.00 | 0.00 | 73 | 1012.9 |
| 20260507091212 | 36 | 263 | 4.0 | 7.0 | 0.00 | 0.00 | 0.00 | 73 | 1012.9 |
| 20260507090738 | 36 | 282 | 4.0 | 8.0 | 0.00 | 0.00 | 0.00 | 72 | 1012.9 |
| 20260507090313 | 36 | 276 | 4.0 | 8.0 | 0.00 | 0.00 | 0.00 | 72 | 1012.9 |
| 20260507085837 | 37 | 296 | 4.0 | 8.0 | 0.00 | 0.00 | 0.00 | 71 | 1013.2 |
| 20260507085411 | 38 | 284 | 6.0 | 9.0 | 0.00 | 0.00 | 0.00 | 71 | 1012.9 |
| 20260507084939 | 38 | 269 | 7.0 | 11.0 | 0.00 | 0.00 | 0.00 | 71 | 1013.2 |
| 20260507084511 | 38 | 263 | 6.0 | 11.0 | 0.00 | 0.00 | 0.00 | 71 | 1012.9 |
| 20260507084037 | 38 | 265 | 8.0 | 11.0 | 0.00 | 0.00 | 0.00 | 72 | 1012.9 |
| 20260507083614 | 38 | 254 | 11.0 | 11.0 | 0.00 | 0.00 | 0.00 | 73 | 1012.9 |
| 20260507083141 | 37 | 242 | 8.0 | 11.0 | 0.00 | 0.00 | 0.00 | 74 | 1012.9 |
| 20260507082712 | 37 | 232 | 6.0 | 11.0 | 0.00 | 0.00 | 0.00 | 75 | 1013.2 |
| 20260507082242 | 37 | 243 | 8.0 | 11.0 | 0.00 | 0.00 | 0.00 | 76 | 1013.2 |
| 20260507081810 | 37 | 240 | 8.0 | 11.0 | 0.00 | 0.00 | 0.00 | 76 | 1013.2 |
| 20260507081337 | 37 | 239 | 6.0 | 10.0 | 0.00 | 0.00 | 0.00 | 77 | 1013.2 |
| 20260507080914 | 37 | 240 | 4.0 | 11.0 | 0.00 | 0.00 | 0.00 | 76 | 1013.2 |
| 20260507080443 | 37 | 251 | 8.0 | 11.0 | 0.00 | 0.00 | 0.00 | 76 | 1013.2 |
| 20260507080014 | 37 | 254 | 7.0 | 10.0 | 0.00 | 0.00 | 0.00 | 76 | 1013.2 |
| 20260507075540 | 37 | 247 | 8.0 | 11.0 | 0.00 | 0.00 | 0.00 | 76 | 1013.5 |
| 20260507075112 | 37 | 236 | 9.0 | 10.0 | 0.00 | 0.00 | 0.00 | 77 | 1013.5 |
| 20260507074642 | 37 | 250 | 5.0 | 10.0 | 0.00 | 0.00 | 0.00 | 77 | 1013.5 |
| 20260507074211 | 37 | 257 | 7.0 | 10.0 | 0.00 | 0.00 | 0.00 | 77 | 1013.5 |
| 20260507073739 | 37 | 241 | 5.0 | 10.0 | 0.00 | 0.00 | 0.00 | 77 | 1013.9 |
| 20260507073314 | 36 | 224 | 6.0 | 9.0 | 0.00 | 0.00 | 0.00 | 78 | 1013.9 |
| 20260507072842 | 36 | 238 | 3.0 | 8.0 | 0.00 | 0.00 | 0.00 | 77 | 1013.9 |
| 20260507072412 | 36 | 234 | 5.0 | 9.0 | 0.00 | 0.00 | 0.00 | 77 | 1013.9 |
| 20260507071939 | 37 | 240 | 4.0 | 9.0 | 0.00 | 0.00 | 0.00 | 76 | 1013.9 |
| 20260507071510 | 37 | 238 | 4.0 | 11.0 | 0.00 | 0.00 | 0.00 | 75 | 1013.9 |
| 20260507070942 | 38 | 240 | 6.0 | 11.0 | 0.00 | 0.00 | 0.00 | 74 | 1013.9 |
| 20260507070413 | 38 | 234 | 5.0 | 11.0 | 0.00 | 0.00 | 0.00 | 74 | 1013.9 |
| 20260507065913 | 38 | 250 | 7.0 | 10.0 | 0.00 | 0.00 | 0.00 | 74 | 1014.2 |
| 20260507065438 | 38 | 254 | 5.0 | 12.0 | 0.00 | 0.00 | 0.00 | 74 | 1014.2 |
| 20260507065036 | 38 | 253 | 5.0 | 12.0 | 0.00 | 0.00 | 0.00 | 74 | 1014.2 |
| 20260507064612 | 38 | 254 | 9.0 | 10.0 | 0.00 | 0.00 | 0.00 | 74 | 1014.2 |
| 20260507064117 | 38 | 226 | 6.0 | 10.0 | 0.00 | 0.00 | 0.00 | 73 | 1014.2 |
| 20260507063712 | 38 | 229 | 9.0 | 10.0 | 0.00 | 0.00 | 0.00 | 74 | 1014.2 |
| 20260507063242 | 38 | 239 | 8.0 | 10.0 | 0.00 | 0.00 | 0.00 | 73 | 1014.2 |
| 20260507062737 | 38 | 227 | 5.0 | 9.0 | 0.00 | 0.00 | 0.00 | 72 | 1014.2 |
| 20260507062314 | 38 | 229 | 6.0 | 9.0 | 0.00 | 0.00 | 0.00 | 72 | 1014.2 |
| 20260507061840 | 38 | 216 | 4.0 | 10.0 | 0.00 | 0.00 | 0.00 | 71 | 1014.2 |
| 20260507061414 | 38 | 222 | 3.0 | 10.0 | 0.00 | 0.00 | 0.00 | 71 | 1014.6 |
| 20260507060938 | 38 | 240 | 8.0 | 9.0 | 0.00 | 0.00 | 0.00 | 72 | 1014.6 |
| 20260507060514 | 38 | 240 | 4.0 | 8.0 | 0.00 | 0.00 | 0.00 | 72 | 1014.6 |
| 20260507060012 | 38 | 221 | 4.0 | 9.0 | 0.00 | 0.00 | 0.00 | 72 | 1014.6 |
| 20260507055512 | 38 | 230 | 7.0 | 8.0 | 0.00 | 0.00 | 0.00 | 71 | 1014.6 |
| 20260507055036 | 38 | 227 | 4.0 | 6.0 | 0.00 | 0.00 | 0.00 | 70 | 1014.6 |
| 20260507054612 | 38 | 221 | 4.0 | 6.0 | 0.00 | 0.00 | 0.00 | 70 | 1014.6 |
| 20260507054112 | 38 | 231 | 3.0 | 6.0 | 0.00 | 0.00 | 0.00 | 69 | 1014.9 |
| 20260507053711 | 39 | 210 | 3.0 | 7.0 | 0.00 | 0.00 | 0.00 | 68 | 1014.9 |
| 20260507053242 | 39 | 203 | 2.0 | 7.0 | 0.00 | 0.00 | 0.00 | 68 | 1014.9 |
| 20260507052742 | 39 | 198 | 4.0 | 6.0 | 0.00 | 0.00 | 0.00 | 68 | 1014.9 |
| 20260507052337 | 39 | 193 | 4.0 | 7.0 | 0.00 | 0.00 | 0.00 | 67 | 1014.9 |
| 20260507051913 | 40 | 211 | 2.0 | 8.0 | 0.00 | 0.00 | 0.00 | 67 | 1014.9 |
| 20260507051412 | 40 | 200 | 4.0 | 8.0 | 0.00 | 0.00 | 0.00 | 67 | 1014.9 |
| 20260507050911 | 40 | 200 | 2.0 | 6.0 | 0.00 | 0.00 | 0.00 | 66 | 1015.2 |
| 20260507050440 | 40 | 209 | 5.0 | 8.0 | 0.00 | 0.00 | 0.00 | 66 | 1015.2 |
| 20260507045937 | 40 | 198 | 4.0 | 8.0 | 0.00 | 0.00 | 0.00 | 66 | 1015.2 |
| 20260507045513 | 40 | 206 | 6.0 | 7.0 | 0.00 | 0.00 | 0.00 | 65 | 1015.2 |
| 20260507044930 | 40 | 204 | 3.0 | 7.0 | 0.00 | 0.00 | 0.00 | 65 | 1015.2 |
| 20260507044431 | 40 | 199 | 3.0 | 6.0 | 0.00 | 0.00 | 0.00 | 65 | 1015.2 |
| 20260507043942 | 40 | 225 | 4.0 | 7.0 | 0.00 | 0.00 | 0.00 | 65 | 1015.6 |
| 20260507043533 | 41 | 193 | 4.0 | 7.0 | 0.00 | 0.00 | 0.00 | 64 | 1015.6 |
| 20260507043029 | 41 | 191 | 5.0 | 7.0 | 0.00 | 0.00 | 0.00 | 64 | 1015.6 |
| 20260507042529 | 41 | 202 | 3.0 | 7.0 | 0.00 | 0.00 | 0.00 | 64 | 1015.6 |
| 20260507042035 | 41 | 184 | 3.0 | 8.0 | 0.00 | 0.00 | 0.00 | 63 | 1015.6 |
| 20260507041630 | 41 | 188 | 6.0 | 9.0 | 0.00 | 0.00 | 0.00 | 62 | 1015.6 |
| 20260507041129 | 42 | 203 | 3.0 | 9.0 | 0.00 | 0.00 | 0.00 | 62 | 1015.9 |
| 20260507040628 | 42 | 211 | 8.0 | 9.0 | 0.00 | 0.00 | 0.00 | 61 | 1015.9 |
| 20260507040128 | 42 | 195 | 3.0 | 9.0 | 0.00 | 0.00 | 0.00 | 60 | 1015.9 |
| 20260507035729 | 42 | 194 | 7.0 | 10.0 | 0.00 | 0.00 | 0.00 | 59 | 1015.9 |
| 20260507035228 | 42 | 218 | 7.0 | 10.0 | 0.00 | 0.00 | 0.00 | 58 | 1015.9 |
| 20260507034827 | 42 | 193 | 6.0 | 9.0 | 0.00 | 0.00 | 0.00 | 57 | 1015.9 |
| 20260507034328 | 42 | 205 | 6.0 | 10.0 | 0.00 | 0.00 | 0.00 | 56 | 1016.3 |
| 20260507033827 | 42 | 207 | 8.0 | 10.0 | 0.00 | 0.00 | 0.00 | 55 | 1015.9 |
| 20260507033340 | 42 | 189 | 6.0 | 10.0 | 0.00 | 0.00 | 0.00 | 54 | 1015.9 |
| 20260507032927 | 42 | 196 | 6.0 | 10.0 | 0.00 | 0.00 | 0.00 | 54 | 1016.3 |
| 20260507032426 | 42 | 192 | 7.0 | 8.0 | 0.00 | 0.00 | 0.00 | 53 | 1016.3 |
| 20260507031928 | 42 | 193 | 2.0 | 8.0 | 0.00 | 0.00 | 0.00 | 52 | 1016.3 |
| 20260507031428 | 42 | 193 | 3.0 | 6.0 | 0.00 | 0.00 | 0.00 | 51 | 1016.3 |
| 20260507030927 | 42 | 193 | 3.0 | 6.0 | 0.00 | 0.00 | 0.00 | 51 | 1016.3 |
| 20260507030426 | 43 | 194 | 3.0 | 7.0 | 0.00 | 0.00 | 0.00 | 50 | 1016.3 |
| 20260507030029 | 43 | 195 | 4.0 | 7.0 | 0.00 | 0.00 | 0.00 | 49 | 1016.3 |
| 20260507025526 | 44 | 200 | 1.0 | 4.0 | 0.00 | 0.00 | 0.00 | 47 | 1016.3 |
| 20260507025127 | 44 | 209 | 2.0 | 5.0 | 0.00 | 0.00 | 0.00 | 47 | 1016.3 |
| 20260507024641 | 45 | 207 | 3.0 | 5.0 | 0.00 | 0.00 | 0.00 | 46 | 1016.3 |
| 20260507024225 | 45 | 221 | 2.0 | 5.0 | 0.00 | 0.00 | 0.00 | 45 | 1016.3 |
| 20260507023739 | 45 | 198 | 3.0 | 4.0 | 0.00 | 0.00 | 0.00 | 44 | 1016.3 |
| 20260507023325 | 46 | 205 | 3.0 | 4.0 | 0.00 | 0.00 | 0.00 | 43 | 1016.3 |
| 20260507022825 | 46 | 206 | 0.0 | 4.0 | 0.00 | 0.00 | 0.00 | 43 | 1016.3 |
| 20260507022326 | 46 | 207 | 2.0 | 5.0 | 0.00 | 0.00 | 0.00 | 42 | 1016.3 |
| 20260507021839 | 47 | 209 | 2.0 | 6.0 | 0.00 | 0.00 | 0.00 | 42 | 1016.6 |
| 20260507021424 | 47 | 210 | 3.0 | 6.0 | 0.00 | 0.00 | 0.00 | 41 | 1016.6 |
| 20260507020939 | 48 | 219 | 4.0 | 7.0 | 0.00 | 0.00 | 0.00 | 40 | 1016.6 |
| 20260507020524 | 48 | 217 | 4.0 | 8.0 | 0.00 | 0.00 | 0.00 | 39 | 1016.6 |
| 20260507020027 | 49 | 227 | 7.0 | 12.0 | 0.00 | 0.00 | 0.00 | 38 | 1016.6 |
| 20260507015524 | 49 | 223 | 5.0 | 12.0 | 0.00 | 0.00 | 0.00 | 37 | 1016.6 |
| 20260507015040 | 50 | 222 | 5.0 | 8.0 | 0.00 | 0.00 | 0.00 | 36 | 1016.6 |
| 20260507014626 | 50 | 227 | 4.0 | 10.0 | 0.00 | 0.00 | 0.00 | 35 | 1016.6 |
| 20260507014139 | 51 | 224 | 5.0 | 10.0 | 0.00 | 0.00 | 0.00 | 35 | 1016.6 |
| 20260507013722 | 51 | 242 | 8.0 | 12.0 | 0.00 | 0.00 | 0.00 | 34 | 1016.6 |
| 20260507013239 | 52 | 229 | 5.0 | 12.0 | 0.00 | 0.00 | 0.00 | 33 | 1016.6 |
| 20260507012823 | 52 | 227 | 8.0 | 12.0 | 0.00 | 0.00 | 0.00 | 32 | 1016.9 |
| 20260507012342 | 52 | 230 | 7.0 | 13.0 | 0.00 | 0.00 | 0.00 | 32 | 1016.9 |
| 20260507011924 | 52 | 227 | 6.0 | 13.0 | 0.00 | 0.00 | 0.00 | 31 | 1016.9 |
| 20260507011438 | 52 | 240 | 8.0 | 13.0 | 0.00 | 0.00 | 0.00 | 31 | 1016.9 |
| 20260507011023 | 52 | 280 | 7.0 | 16.0 | 0.00 | 0.00 | 0.00 | 31 | 1016.9 |
| 20260507010544 | 52 | 237 | 7.0 | 16.0 | 0.00 | 0.00 | 0.00 | 30 | 1016.9 |
| 20260507010125 | 52 | 234 | 7.0 | 14.0 | 0.00 | 0.00 | 0.00 | 31 | 1016.9 |
| 20260507005723 | 52 | 248 | 9.0 | 14.0 | 0.00 | 0.00 | 0.00 | 30 | 1016.9 |
| 20260507005222 | 53 | 254 | 12.0 | 14.0 | 0.00 | 0.00 | 0.00 | 29 | 1016.9 |
| 20260507004821 | 53 | 240 | 8.0 | 16.0 | 0.00 | 0.00 | 0.00 | 29 | 1016.9 |
| 20260507004321 | 54 | 251 | 12.0 | 17.0 | 0.00 | 0.00 | 0.00 | 29 | 1017.3 |
| 20260507003823 | 54 | 266 | 12.0 | 17.0 | 0.00 | 0.00 | 0.00 | 27 | 1017.3 |
| 20260507003342 | 54 | 286 | 15.0 | 17.0 | 0.00 | 0.00 | 0.00 | 28 | 1017.3 |
| 20260507002920 | 54 | 233 | 8.0 | 17.0 | 0.00 | 0.00 | 0.00 | 27 | 1017.3 |
| 20260507002423 | 54 | 236 | 14.0 | 19.0 | 0.00 | 0.00 | 0.00 | 27 | 1017.3 |
| 20260507002021 | 54 | 257 | 11.0 | 19.0 | 0.00 | 0.00 | 0.00 | 27 | 1017.3 |
| 20260507001523 | 54 | 251 | 10.0 | 17.0 | 0.00 | 0.00 | 0.00 | 27 | 1017.3 |
| 20260507001023 | 54 | 256 | 13.0 | 19.0 | 0.00 | 0.00 | 0.00 | 25 | 1017.3 |
| 20260507000522 | 54 | 252 | 10.0 | 19.0 | 0.00 | 0.00 | 0.00 | 27 | 1017.3 |
| 20260507000120 | 54 | 221 | 5.0 | 13.0 | 0.00 | 0.00 | 0.00 | 27 | 1017.3 |
| 20260506235619 | 55 | 244 | 7.0 | 21.0 | 0.00 | 0.00 | 0.00 | 27 | 1017.6 |
| 20260506235120 | 54 | 230 | 8.0 | 21.0 | 0.00 | 0.00 | 0.00 | 27 | 1017.3 |
| 20260506234641 | 55 | 274 | 15.0 | 18.0 | 0.00 | 0.00 | 0.00 | 26 | 1017.6 |
| 20260506234139 | 55 | 254 | 12.0 | 17.0 | 0.00 | 0.00 | 0.00 | 27 | 1017.6 |
| 20260506233721 | 55 | 290 | 12.0 | 15.0 | 0.00 | 0.00 | 0.00 | 26 | 1017.6 |
| 20260506233318 | 55 | 270 | 8.0 | 13.0 | 0.00 | 0.00 | 0.00 | 25 | 1017.6 |
| 20260506232820 | 55 | 248 | 7.0 | 19.0 | 0.00 | 0.00 | 0.00 | 27 | 1017.6 |
| 20260506232319 | 54 | 240 | 6.0 | 20.0 | 0.00 | 0.00 | 0.00 | 26 | 1017.6 |
| 20260506231837 | 54 | 243 | 9.0 | 20.0 | 0.00 | 0.00 | 0.00 | 26 | 1017.9 |
| 20260506231341 | 54 | 242 | 11.0 | 20.0 | 0.00 | 0.00 | 0.00 | 25 | 1017.9 |
| 20260506230940 | 55 | 252 | 14.0 | 20.0 | 0.00 | 0.00 | 0.00 | 25 | 1017.9 |
| 20260506230519 | 55 | 247 | 11.0 | 19.0 | 0.00 | 0.00 | 0.00 | 25 | 1017.9 |
| 20260506230019 | 54 | 257 | 17.0 | 18.0 | 0.00 | 0.00 | 0.00 | 25 | 1017.9 |
| 20260506225618 | 54 | 279 | 11.0 | 21.0 | 0.00 | 0.00 | 0.00 | 25 | 1017.9 |
| 20260506225137 | 55 | 306 | 11.0 | 24.0 | 0.00 | 0.00 | 0.00 | 25 | 1018.3 |
| 20260506224717 | 55 | 283 | 12.0 | 24.0 | 0.00 | 0.00 | 0.00 | 24 | 1018.3 |
| 20260506224239 | 54 | 259 | 13.0 | 15.0 | 0.00 | 0.00 | 0.00 | 26 | 1017.9 |
| 20260506223816 | 54 | 265 | 9.0 | 19.0 | 0.00 | 0.00 | 0.00 | 27 | 1018.3 |
| 20260506223342 | 53 | 261 | 12.0 | 24.0 | 0.00 | 0.00 | 0.00 | 26 | 1018.6 |
| 20260506222917 | 54 | 243 | 15.0 | 24.0 | 0.00 | 0.00 | 0.00 | 26 | 1018.6 |
| 20260506222436 | 54 | 237 | 16.0 | 16.0 | 0.00 | 0.00 | 0.00 | 27 | 1018.6 |
| 20260506222017 | 53 | 259 | 8.0 | 16.0 | 0.00 | 0.00 | 0.00 | 26 | 1018.6 |
| 20260506221520 | 54 | 260 | 10.0 | 20.0 | 0.00 | 0.00 | 0.00 | 26 | 1018.6 |
| 20260506221116 | 54 | 228 | 10.0 | 20.0 | 0.00 | 0.00 | 0.00 | 25 | 1018.6 |
| 20260506220643 | 54 | 288 | 16.0 | 18.0 | 0.00 | 0.00 | 0.00 | 27 | 1018.6 |
| 20260506220215 | 54 | 246 | 10.0 | 21.0 | 0.00 | 0.00 | 0.00 | 25 | 1018.6 |
| 20260506215715 | 54 | 249 | 12.0 | 21.0 | 0.00 | 0.00 | 0.00 | 25 | 1018.6 |
| 20260506215315 | 55 | 238 | 15.0 | 20.0 | 0.00 | 0.00 | 0.00 | 25 | 1018.6 |
| 20260506214839 | 55 | 247 | 15.0 | 20.0 | 0.00 | 0.00 | 0.00 | 25 | 1018.6 |
| 20260506214415 | 54 | 269 | 15.0 | 21.0 | 0.00 | 0.00 | 0.00 | 26 | 1019.0 |
| 20260506213945 | 54 | 301 | 7.0 | 23.0 | 0.00 | 0.00 | 0.00 | 24 | 1019.0 |
| 20260506213514 | 54 | 271 | 9.0 | 23.0 | 0.00 | 0.00 | 0.00 | 25 | 1019.3 |
| 20260506213043 | 54 | 259 | 12.0 | 19.0 | 0.00 | 0.00 | 0.00 | 25 | 1019.0 |
| 20260506212614 | 54 | 270 | 6.0 | 19.0 | 0.00 | 0.00 | 0.00 | 24 | 1019.3 |
| 20260506212138 | 54 | 252 | 10.0 | 19.0 | 0.00 | 0.00 | 0.00 | 25 | 1019.3 |
| 20260506211716 | 54 | 254 | 14.0 | 18.0 | 0.00 | 0.00 | 0.00 | 26 | 1019.3 |
| 20260506211241 | 54 | 271 | 9.0 | 17.0 | 0.00 | 0.00 | 0.00 | 25 | 1019.3 |
| 20260506210816 | 54 | 257 | 10.0 | 19.0 | 0.00 | 0.00 | 0.00 | 24 | 1019.6 |
| 20260506210338 | 55 | 263 | 11.0 | 19.0 | 0.00 | 0.00 | 0.00 | 26 | 1019.6 |
| 20260506205913 | 55 | 250 | 15.0 | 19.0 | 0.00 | 0.00 | 0.00 | 25 | 1019.6 |
| 20260506205443 | 55 | 240 | 15.0 | 21.0 | 0.00 | 0.00 | 0.00 | 26 | 1019.6 |
| 20260506205013 | 54 | 249 | 12.0 | 21.0 | 0.00 | 0.00 | 0.00 | 27 | 1019.6 |
| 20260506204542 | 53 | 212 | 3.0 | 16.0 | 0.00 | 0.00 | 0.00 | 27 | 1020.0 |
| 20260506204115 | 53 | 290 | 11.0 | 18.0 | 0.00 | 0.00 | 0.00 | 26 | 1020.0 |
| 20260506203643 | 53 | 267 | 10.0 | 21.0 | 0.00 | 0.00 | 0.00 | 26 | 1020.0 |
| 20260506203213 | 54 | 246 | 18.0 | 21.0 | 0.00 | 0.00 | 0.00 | 26 | 1020.3 |
| 20260506202739 | 54 | 298 | 12.0 | 19.0 | 0.00 | 0.00 | 0.00 | 26 | 1020.3 |
| 20260506202311 | 53 | 297 | 10.0 | 16.0 | 0.00 | 0.00 | 0.00 | 28 | 1020.3 |
| 20260506201837 | 52 | 278 | 3.0 | 20.0 | 0.00 | 0.00 | 0.00 | 25 | 1020.3 |
| 20260506201341 | 52 | 231 | 12.0 | 20.0 | 0.00 | 0.00 | 0.00 | 27 | 1020.7 |
| 20260506200941 | 51 | 261 | 15.0 | 17.0 | 0.00 | 0.00 | 0.00 | 28 | 1020.3 |
| 20260506200514 | 51 | 261 | 11.0 | 15.0 | 0.00 | 0.00 | 0.00 | 28 | 1020.7 |
| 20260506200038 | 52 | 292 | 10.0 | 21.0 | 0.00 | 0.00 | 0.00 | 27 | 1020.7 |
| 20260506195613 | 52 | 293 | 8.0 | 21.0 | 0.00 | 0.00 | 0.00 | 27 | 1020.7 |
| 20260506195141 | 51 | 269 | 14.0 | 18.0 | 0.00 | 0.00 | 0.00 | 29 | 1020.7 |
| 20260506194713 | 52 | 244 | 5.0 | 17.0 | 0.00 | 0.00 | 0.00 | 26 | 1020.7 |
| 20260506194240 | 52 | 304 | 10.0 | 17.0 | 0.00 | 0.00 | 0.00 | 28 | 1021.0 |
| 20260506193811 | 52 | 295 | 15.0 | 21.0 | 0.00 | 0.00 | 0.00 | 28 | 1020.7 |
| 20260506193344 | 51 | 250 | 13.0 | 21.0 | 0.00 | 0.00 | 0.00 | 28 | 1021.0 |
| 20260506192911 | 51 | 246 | 10.0 | 15.0 | 0.00 | 0.00 | 0.00 | 29 | 1021.0 |
| 20260506192440 | 51 | 319 | 5.0 | 18.0 | 0.00 | 0.00 | 0.00 | 28 | 1021.0 |
| 20260506192014 | 50 | 254 | 7.0 | 20.0 | 0.00 | 0.00 | 0.00 | 28 | 1021.0 |
| 20260506191512 | 50 | 307 | 7.0 | 20.0 | 0.00 | 0.00 | 0.00 | 29 | 1021.0 |
| 20260506191115 | 51 | 279 | 7.0 | 12.0 | 0.00 | 0.00 | 0.00 | 30 | 1021.3 |
| 20260506190646 | 50 | 196 | 5.0 | 15.0 | 0.00 | 0.00 | 0.00 | 31 | 1021.3 |
| 20260506190215 | 50 | 218 | 11.0 | 16.0 | 0.00 | 0.00 | 0.00 | 31 | 1021.3 |
| 20260506185742 | 50 | 218 | 11.0 | 16.0 | 0.00 | 0.00 | 0.00 | 31 | 1021.3 |
| 20260506185310 | 50 | 311 | 6.0 | 17.0 | 0.00 | 0.00 | 0.00 | 31 | 1021.3 |
| 20260506184837 | 49 | 199 | 5.0 | 17.0 | 0.00 | 0.00 | 0.00 | 33 | 1021.7 |
| 20260506184412 | 49 | 279 | 11.0 | 17.0 | 0.00 | 0.00 | 0.00 | 33 | 1021.7 |
| 20260506183840 | 49 | 250 | 13.0 | 15.0 | 0.00 | 0.00 | 0.00 | 34 | 1021.7 |
| 20260506183412 | 49 | 324 | 6.0 | 13.0 | 0.00 | 0.00 | 0.00 | 33 | 1021.7 |
| 20260506182914 | 48 | 277 | 2.0 | 17.0 | 0.00 | 0.00 | 0.00 | 35 | 1022.0 |
| 20260506182512 | 48 | 244 | 10.0 | 17.0 | 0.00 | 0.00 | 0.00 | 36 | 1022.0 |
| 20260506182037 | 48 | 286 | 7.0 | 19.0 | 0.00 | 0.00 | 0.00 | 34 | 1022.0 |
| 20260506181613 | 48 | 319 | 10.0 | 19.0 | 0.00 | 0.00 | 0.00 | 34 | 1022.0 |
| 20260506181141 | 48 | 274 | 9.0 | 18.0 | 0.00 | 0.00 | 0.00 | 35 | 1022.0 |
| 20260506180710 | 48 | 290 | 10.0 | 15.0 | 0.00 | 0.00 | 0.00 | 36 | 1022.0 |
| 20260506180241 | 47 | 234 | 5.0 | 12.0 | 0.00 | 0.00 | 0.00 | 37 | 1022.4 |
| 20260506175812 | 47 | 267 | 4.0 | 15.0 | 0.00 | 0.00 | 0.00 | 36 | 1022.0 |
| 20260506175342 | 47 | 304 | 9.0 | 15.0 | 0.00 | 0.00 | 0.00 | 37 | 1022.4 |
| 20260506174911 | 47 | 275 | 11.0 | 18.0 | 0.00 | 0.00 | 0.00 | 36 | 1022.4 |
| 20260506174415 | 47 | 278 | 14.0 | 18.0 | 0.00 | 0.00 | 0.00 | 36 | 1022.7 |
| 20260506174014 | 46 | 252 | 13.0 | 16.0 | 0.00 | 0.00 | 0.00 | 38 | 1022.7 |
| 20260506173538 | 46 | 316 | 5.0 | 15.0 | 0.00 | 0.00 | 0.00 | 42 | 1022.7 |
| 20260506173113 | 45 | 294 | 5.0 | 15.0 | 0.00 | 0.00 | 0.00 | 42 | 1022.7 |
| 20260506172623 | 45 | 292 | 13.0 | 17.0 | 0.00 | 0.00 | 0.00 | 40 | 1022.7 |
| 20260506172123 | 46 | 304 | 10.0 | 17.0 | 0.00 | 0.00 | 0.00 | 41 | 1022.7 |
| 20260506171646 | 46 | 294 | 12.0 | 16.0 | 0.00 | 0.00 | 0.00 | 43 | 1022.7 |
| 20260506171137 | 45 | 273 | 7.0 | 11.0 | 0.00 | 0.00 | 0.00 | 42 | 1022.7 |
| 20260506170721 | 45 | 301 | 5.0 | 16.0 | 0.00 | 0.00 | 0.00 | 43 | 1022.7 |
| 20260506170243 | 45 | 274 | 8.0 | 16.0 | 0.00 | 0.00 | 0.00 | 43 | 1022.7 |
| 20260506165823 | 44 | 281 | 13.0 | 14.0 | 0.00 | 0.00 | 0.00 | 42 | 1022.7 |
| 20260506165340 | 44 | 255 | 7.0 | 14.0 | 0.00 | 0.00 | 0.00 | 43 | 1022.7 |
| 20260506164920 | 44 | 284 | 7.0 | 14.0 | 0.00 | 0.00 | 0.00 | 42 | 1022.7 |
| 20260506164425 | 44 | 292 | 13.0 | 15.0 | 0.00 | 0.00 | 0.00 | 41 | 1023.0 |
| 20260506163925 | 44 | 271 | 6.0 | 15.0 | 0.00 | 0.00 | 0.00 | 44 | 1023.0 |
| 20260506163443 | 43 | 250 | 7.0 | 13.0 | 0.00 | 0.00 | 0.00 | 44 | 1022.7 |
| 20260506163021 | 43 | 5 | 5.0 | 13.0 | 0.00 | 0.00 | 0.00 | 44 | 1022.7 |
| 20260506162521 | 43 | 311 | 5.0 | 14.0 | 0.00 | 0.00 | 0.00 | 45 | 1023.0 |
| 20260506162121 | 43 | 294 | 8.0 | 14.0 | 0.00 | 0.00 | 0.00 | 43 | 1023.0 |
| 20260506161642 | 43 | 325 | 4.0 | 12.0 | 0.00 | 0.00 | 0.00 | 45 | 1023.0 |
| 20260506161137 | 42 | 360 | 6.0 | 12.0 | 0.00 | 0.00 | 0.00 | 45 | 1023.0 |
| 20260506160719 | 42 | 298 | 2.0 | 13.0 | 0.00 | 0.00 | 0.00 | 46 | 1023.0 |
| 20260506160220 | 42 | 285 | 7.0 | 14.0 | 0.00 | 0.00 | 0.00 | 46 | 1023.0 |
| 20260506155719 | 42 | 261 | 8.0 | 14.0 | 0.00 | 0.00 | 0.00 | 48 | 1023.0 |
| 20260506155235 | 42 | 290 | 3.0 | 13.0 | 0.00 | 0.00 | 0.00 | 47 | 1023.0 |
| 20260506154824 | 41 | 257 | 7.0 | 14.0 | 0.00 | 0.00 | 0.00 | 48 | 1023.0 |
| 20260506154320 | 41 | 255 | 8.0 | 14.0 | 0.00 | 0.00 | 0.00 | 50 | 1023.0 |
| 20260506153819 | 40 | 293 | 9.0 | 13.0 | 0.00 | 0.00 | 0.00 | 49 | 1023.0 |
| 20260506153336 | 41 | 279 | 9.0 | 13.0 | 0.00 | 0.00 | 0.00 | 48 | 1023.0 |
| 20260506152919 | 42 | 271 | 4.0 | 14.0 | 0.00 | 0.00 | 0.00 | 50 | 1023.0 |
| 20260506152441 | 41 | 310 | 9.0 | 14.0 | 0.00 | 0.00 | 0.00 | 48 | 1023.0 |
| 20260506152020 | 41 | 11 | 8.0 | 14.0 | 0.00 | 0.00 | 0.00 | 49 | 1023.0 |
| 20260506151517 | 41 | 348 | 8.0 | 14.0 | 0.00 | 0.00 | 0.00 | 49 | 1023.0 |
| 20260506151119 | 41 | 317 | 13.0 | 14.0 | 0.00 | 0.00 | 0.00 | 50 | 1023.4 |
| 20260506150618 | 41 | 289 | 3.0 | 11.0 | 0.00 | 0.00 | 0.00 | 53 | 1023.4 |
| 20260506150119 | 41 | 328 | 4.0 | 11.0 | 0.00 | 0.00 | 0.00 | 52 | 1023.4 |
| 20260506145617 | 40 | 275 | 4.0 | 9.0 | 0.00 | 0.00 | 0.00 | 53 | 1023.4 |
| 20260506145142 | 40 | 339 | 4.0 | 9.0 | 0.00 | 0.00 | 0.00 | 54 | 1023.4 |
| 20260506144717 | 40 | 265 | 3.0 | 9.0 | 0.00 | 0.00 | 0.00 | 54 | 1023.4 |
| 20260506144238 | 40 | 265 | 4.0 | 6.0 | 0.00 | 0.00 | 0.00 | 55 | 1023.4 |
| 20260506143818 | 40 | 5 | 1.0 | 4.0 | 0.00 | 0.00 | 0.00 | 55 | 1023.4 |
| 20260506143336 | 39 | 5 | 0.0 | 4.0 | 0.00 | 0.00 | 0.00 | 55 | 1023.4 |
| 20260506142916 | 39 | 5 | 2.0 | 5.0 | 0.00 | 0.00 | 0.00 | 57 | 1023.4 |
| 20260506142417 | 39 | 10 | 2.0 | 6.0 | 0.00 | 0.00 | 0.00 | 58 | 1023.4 |
| 20260506142016 | 39 | 9 | 3.0 | 6.0 | 0.00 | 0.00 | 0.00 | 59 | 1023.4 |
| 20260506141516 | 38 | 300 | 3.0 | 8.0 | 0.00 | 0.00 | 0.00 | 61 | 1023.4 |
| 20260506141039 | 38 | 346 | 6.0 | 8.0 | 0.00 | 0.00 | 0.00 | 62 | 1023.4 |
| 20260506140617 | 38 | 320 | 6.0 | 8.0 | 0.00 | 0.00 | 0.00 | 63 | 1023.4 |
| 20260506140139 | 38 | 325 | 2.0 | 8.0 | 0.00 | 0.00 | 0.00 | 64 | 1023.4 |
| 20260506135715 | 37 | 355 | 2.0 | 8.0 | 0.00 | 0.00 | 0.00 | 65 | 1023.4 |
| 20260506135240 | 37 | 302 | 5.0 | 8.0 | 0.00 | 0.00 | 0.00 | 68 | 1023.4 |
| 20260506134815 | 36 | 318 | 5.0 | 8.0 | 0.00 | 0.00 | 0.00 | 70 | 1023.4 |